Simultaneous Nadir Overpasses (SNOs) Predictions

Prediction of SNOs between LANDSAT-8 and NOAA-19 Satellite Orbit:

Table of predicted SNOs for the next 14.0 days since TLE Epoch: 12/23/2023
Index Date (LANDSAT-8) Time (LANDSAT-8) Lat,Lon (LANDSAT-8) SZA (LANDSAT-8 ) Date (NOAA-19) Time (NOAA-19) Lat,Lon (NOAA-19) SZA (NOAA-19 ) Distance(km) Time Diff (sec)
1 12/24/2023 17:43:39 -80.88, 130.48 74.07 12/24/2023 17:43:31 -80.88, 130.56 74.05 1.74 8
2 12/27/2023 00:06:47 -80.90, 34.95 74.12 12/27/2023 00:06:42 -80.89, 34.95 74.13 1.00 5
3 12/29/2023 06:29:57 -80.88, -61.09 74.29 12/29/2023 06:29:55 -80.88, -61.11 74.29 0.50 2
4 12/31/2023 12:53:06 -80.87,-156.94 74.47 12/31/2023 12:53:07 -80.88,-156.89 74.45 1.16 1
5 01/02/2024 19:16:14 -80.88, 107.40 74.66 01/02/2024 19:16:19 -80.88, 107.25 74.67 2.75 5



Historial Predications of SNOs between LANDSAT-8 and NOAA-19
